FW5284 Weather Reports


Display with metric or nautical units.
time (UTC)temp
F
wind
direction
speed
MPH
gust
MPH
rain 1hr
in
rain 24hr
in
rain mn
in
humidity
%
barometer
mb
20260509181003 65 288 0.0 0.0 0.00 0.50 0.22 63 989.1
20260509180503 65 288 0.0 0.0 0.00 0.50 0.22 65 991.0
20260509180004 67 288 0.0 0.0 0.00 0.50 0.22 64 991.2
20260509175503 67 286 0.0 0.0 0.00 0.50 0.22 65 991.6
20260509175006 65 290 0.0 0.0 0.00 0.50 0.22 66 991.1
20260509174510 63 290 0.0 0.0 0.00 0.50 0.22 69 987.8
20260509174002 62 307 0.0 0.0 0.00 0.50 0.22 70 988.0
20260509173505 63 304 0.0 0.0 0.00 0.50 0.22 70 988.0
20260509173014 64 304 0.0 0.0 0.00 0.50 0.22 66 988.1
20260509172503 67 288 0.0 0.0 0.00 0.50 0.22 65 987.3
20260509172006 67 288 0.0 0.0 0.00 0.50 0.22 64 989.4
20260509171519 67 289 0.0 0.0 0.00 0.50 0.22 63 983.7
20260509171006 68 289 0.0 0.0 0.00 0.50 0.22 60 985.0
20260509170508 65 287 0.0 0.0 0.00 0.50 0.22 62 983.4
20260509170023 67 288 0.0 0.0 0.00 0.50 0.22 59 985.5
20260509165502 68 285 0.0 0.0 0.00 0.50 0.22 59 981.9
20260509165004 68 287 0.0 0.0 0.00 0.50 0.22 59 984.2
20260509164504 68 287 0.0 0.0 0.00 0.50 0.22 58 982.6
20260509164003 69 288 0.0 0.0 0.00 0.50 0.22 54 979.3
20260509163503 67 288 0.0 0.0 0.00 0.50 0.22 54 975.8
20260509163007 66 287 0.0 0.0 0.00 0.50 0.22 58 972.3
20260509162505 66 287 0.0 0.0 0.00 0.50 0.22 58 972.5
20260509162007 66 285 0.0 0.0 0.00 0.50 0.22 59 974.2
20260509161515 66 287 0.0 0.0 0.00 0.50 0.22 60 976.4
20260509161010 65 285 0.0 0.0 0.00 0.50 0.22 63 979.2
20260509160506 65 287 0.0 0.0 0.00 0.50 0.22 63 981.2
20260509160020 65 286 0.0 0.0 0.00 0.50 0.22 66 983.3
20260509155509 64 285 0.0 0.0 0.00 0.50 0.22 66 981.9
20260509155009 65 288 0.0 0.0 0.00 0.50 0.22 65 978.0
20260509154524 64 286 0.0 0.0 0.00 0.50 0.22 66 979.1
20260509154003 64 293 0.0 0.0 0.00 0.50 0.22 67 980.2
20260509153502 62 293 0.0 0.0 0.00 0.50 0.22 68 980.2
20260509153015 63 290 0.0 0.0 0.00 0.50 0.22 67 980.3
20260509152504 63 286 0.0 0.0 0.00 0.50 0.22 68 981.3
20260509152004 66 286 0.0 0.0 0.00 0.50 0.22 64 978.2
20260509151513 63 285 0.0 0.0 0.00 0.50 0.22 69 977.6
20260509151003 63 286 0.0 0.0 0.00 0.50 0.22 71 979.7
20260509150507 63 287 0.0 0.0 0.00 0.50 0.22 70 982.6
20260509150026 62 287 0.0 0.0 0.00 0.50 0.22 72 981.9
20260509145509 62 286 0.0 0.0 0.00 0.50 0.22 72 981.9
20260509145010 61 286 0.0 0.0 0.00 0.50 0.22 75 981.6
20260509144528 60 288 0.0 0.0 0.00 0.50 0.22 78 979.2
20260509144014 57 286 0.0 0.0 0.00 0.50 0.22 80 961.5
20260509143506 58 289 0.0 0.0 0.00 0.50 0.22 80 967.9
20260509143026 57 286 0.0 0.0 0.00 0.50 0.22 81 966.7
20260509142503 57 286 0.0 0.0 0.00 0.50 0.22 80 967.2
20260509142003 59 286 0.0 0.0 0.00 0.50 0.22 79 972.6
20260509141514 59 286 0.0 0.0 0.00 0.50 0.22 80 974.9
20260509141003 60 287 0.0 0.0 0.00 0.50 0.22 80 978.6
20260509140505 59 286 0.0 0.0 0.00 0.50 0.22 81 980.2
20260509140026 58 286 0.0 0.0 0.00 0.50 0.22 83 977.9
20260509135503 58 287 0.0 0.0 0.00 0.50 0.22 83 975.2
20260509135008 57 287 0.0 0.0 0.00 0.50 0.22 84 975.4
20260509134538 60 286 0.0 0.0 0.00 0.50 0.22 81 976.6
20260509134006 59 285 0.0 0.0 0.00 0.50 0.22 80 975.6
20260509133509 60 286 0.0 0.0 0.00 0.50 0.22 80 975.8
20260509133024 60 286 0.0 0.0 0.00 0.50 0.22 81 973.4
20260509132508 60 285 0.0 0.0 0.00 0.50 0.22 83 980.3
20260509132013 58 288 0.0 0.0 0.00 0.50 0.22 86 973.9
20260509131524 56 288 0.0 0.0 0.00 0.50 0.22 88 967.8
20260509131011 56 288 0.0 0.0 0.00 0.50 0.22 89 967.6
20260509130504 55 286 0.0 0.0 0.00 0.50 0.22 92 968.5
20260509130012 54 288 0.0 0.0 0.00 0.50 0.22 95 970.7
20260509125505 54 290 0.0 0.0 0.00 0.50 0.22 96 969.1
20260509125004 54 296 0.0 0.0 0.00 0.50 0.22 97 969.9
20260509124515 53 298 0.0 0.0 0.00 0.50 0.22 96 971.2
20260509124007 53 299 0.0 0.0 0.00 0.50 0.22 96 971.2
20260509123502 53 299 0.0 0.0 0.00 0.50 0.22 96 971.3
20260509123004 52 299 0.0 0.0 0.00 0.50 0.22 96 971.3
20260509122504 53 299 0.0 0.0 0.00 0.50 0.22 96 971.3
20260509122006 52 299 0.0 0.0 0.00 0.50 0.22 96 971.2
20260509121519 52 299 0.0 0.0 0.00 0.50 0.22 96 971.2
20260509121005 52 299 0.0 0.0 0.00 0.50 0.22 96 971.2
20260509120504 52 299 0.0 0.0 0.00 0.50 0.22 96 971.2
20260509120007 52 299 0.0 0.0 0.00 0.50 0.22 96 971.3
20260509115504 52 299 0.0 0.0 0.00 0.50 0.22 96 971.3
20260509115004 52 299 0.0 0.0 0.00 0.50 0.22 96 971.3
20260509114527 52 299 0.0 0.0 0.00 0.50 0.22 96 971.2
20260509114007 52 299 0.0 0.0 0.00 0.50 0.22 96 971.2
20260509113503 52 299 0.0 0.0 0.00 0.50 0.22 96 971.2
20260509113009 52 299 0.0 0.0 0.00 0.50 0.22 96 971.2
20260509112503 52 299 0.0 0.0 0.00 0.50 0.22 96 971.3
20260509112005 52 299 0.0 0.0 0.00 0.50 0.22 96 971.2
20260509111504 52 299 0.0 0.0 0.00 0.50 0.22 96 971.2
20260509111004 51 299 0.0 0.0 0.00 0.50 0.22 96 971.1
20260509110504 51 299 0.0 0.0 0.00 0.50 0.22 96 971.0
20260509110006 51 299 0.0 0.0 0.00 0.50 0.22 96 971.0
20260509105505 51 299 0.0 0.0 0.00 0.50 0.22 96 971.0
20260509105004 51 299 0.0 0.0 0.00 0.50 0.22 96 970.9
20260509104508 51 299 0.0 0.0 0.00 0.50 0.22 96 971.1
20260509104006 51 299 0.0 0.0 0.00 0.50 0.22 96 971.1
20260509103506 51 299 0.0 0.0 0.00 0.50 0.22 96 971.1
20260509103014 51 299 0.0 0.0 0.00 0.50 0.22 96 971.1
20260509102507 51 299 0.0 0.0 0.00 0.50 0.22 96 971.0
20260509102007 51 299 0.0 0.0 0.00 0.50 0.22 96 971.0
20260509101505 51 299 0.0 0.0 0.00 0.50 0.22 96 971.1
20260509101003 51 299 0.0 0.0 0.00 0.50 0.22 96 971.2
20260509100503 51 299 0.0 0.0 0.00 0.50 0.22 96 971.3
20260509100005 51 299 0.0 0.0 0.00 0.50 0.22 96 971.2
20260509095502 51 299 0.0 0.0 0.00 0.50 0.22 96 971.3
20260509095002 51 299 0.0 0.0 0.00 0.50 0.22 96 971.3
20260509094517 51 299 0.0 0.0 0.00 0.50 0.22 96 971.3
20260509094004 51 299 0.0 0.0 0.00 0.50 0.22 96 971.2
20260509093503 51 299 0.0 0.0 0.00 0.50 0.22 96 971.3
20260509093010 51 299 0.0 0.0 0.01 0.50 0.22 95 971.4
20260509092506 51 299 0.0 0.0 0.01 0.50 0.22 95 971.4
20260509092005 51 299 0.0 0.0 0.01 0.50 0.22 95 971.4
20260509091530 51 299 0.0 0.0 0.01 0.50 0.22 95 971.5
20260509091007 51 299 0.0 0.0 0.01 0.50 0.22 95 971.6
20260509090506 51 299 0.0 0.0 0.01 0.50 0.22 95 971.6
20260509090022 51 299 0.0 0.0 0.01 0.50 0.22 95 971.6
20260509085503 51 299 0.0 0.0 0.01 0.50 0.22 95 971.6
20260509085003 51 299 0.0 0.0 0.01 0.50 0.22 95 971.6
20260509084506 51 299 0.0 0.0 0.01 0.50 0.22 95 971.6
20260509084006 51 299 0.0 0.0 0.01 0.50 0.22 96 971.7
20260509083502 51 299 0.0 0.0 0.02 0.50 0.22 95 971.7
20260509083012 51 299 0.0 0.0 0.01 0.49 0.21 95 971.7
20260509082503 51 299 0.0 0.0 0.01 0.49 0.21 95 971.7
20260509082005 51 299 0.0 0.0 0.01 0.49 0.21 95 971.7
20260509081523 51 299 0.0 0.0 0.02 0.49 0.21 95 971.7
20260509081005 51 299 0.0 0.0 0.02 0.49 0.21 95 971.8
20260509080507 51 299 0.0 0.0 0.03 0.49 0.21 95 971.8
20260509080020 51 299 0.0 0.0 0.04 0.49 0.21 95 971.8
20260509075506 51 299 0.0 0.0 0.05 0.49 0.21 95 971.8
20260509075009 51 299 0.0 0.0 0.06 0.49 0.21 95 971.8
20260509074531 51 299 0.0 0.0 0.07 0.49 0.21 95 971.8
20260509074003 51 299 0.0 0.0 0.08 0.49 0.21 95 971.8
20260509073503 51 299 0.0 0.0 0.08 0.48 0.20 95 971.7
20260509073006 51 299 0.0 0.0 0.09 0.48 0.20 95 971.8
20260509072503 51 299 0.0 0.0 0.09 0.48 0.20 95 971.9
20260509072003 51 299 0.0 0.0 0.10 0.48 0.20 95 972.0
20260509071512 51 299 0.0 0.0 0.09 0.47 0.19 95 972.0
20260509071004 51 299 0.0 0.0 0.10 0.47 0.19 95 972.0
20260509070503 51 299 0.0 0.0 0.10 0.46 0.18 95 972.1
20260509070016 51 299 0.0 0.0 0.09 0.45 0.17 95 972.1
20260509065506 51 299 0.0 0.0 0.10 0.44 0.16 95 972.0
20260509065006 51 299 0.0 0.0 0.10 0.43 0.15 95 972.1
20260509064520 51 299 0.0 0.0 0.09 0.42 0.14 95 972.1
20260509064012 51 299 0.0 0.0 0.08 0.41 0.13 95 972.2
20260509063508 51 299 0.0 0.0 0.08 0.40 0.12 95 972.2
20260509063028 51 299 0.0 0.0 0.08 0.39 0.11 95 972.2
20260509062512 51 299 0.0 0.0 0.08 0.39 0.11 95 972.3
20260509062003 51 299 0.0 0.0 0.08 0.38 0.10 95 972.4
20260509061508 51 299 0.0 0.0 0.08 0.38 0.10 95 972.4
20260509061005 51 299 0.0 0.0 0.07 0.37 0.09 95 972.5
20260509060503 50 299 0.0 0.0 0.07 0.36 0.08 95 972.6
20260509060017 50 299 0.0 0.0 0.07 0.36 0.08 95 972.6
20260509055506 50 299 0.0 0.0 0.05 0.34 0.06 95 972.7
20260509055006 50 299 0.0 0.0 0.04 0.33 0.05 95 972.7
20260509054518 50 299 0.0 0.0 0.04 0.33 0.05 95 972.7
20260509054006 50 299 0.0 0.0 0.04 0.33 0.05 95 972.8
20260509053507 50 299 0.0 0.0 0.03 0.32 0.04 95 972.8
20260509053024 50 299 0.0 0.0 0.03 0.31 0.03 95 972.9
20260509052507 50 299 0.0 0.0 0.03 0.31 0.03 94 972.9
20260509052007 50 299 0.0 0.0 0.02 0.30 0.02 95 972.9
20260509051523 50 299 0.0 0.0 0.02 0.30 0.02 95 973.0
20260509051012 50 299 0.0 0.0 0.02 0.30 0.02 95 973.0
20260509050504 50 299 0.0 0.0 0.01 0.29 0.01 94 973.0
20260509050011 50 299 0.0 0.0 0.01 0.29 0.01 94 973.1
20260509045503 50 299 0.0 0.0 0.01 0.29 0.01 94 973.1
20260509045003 50 299 0.0 0.0 0.02 0.29 0.01 94 973.1
20260509044516 50 299 0.0 0.0 0.02 0.29 0.01 94 973.2
20260509044007 50 299 0.0 0.0 0.03 0.29 0.01 94 973.0
20260509043508 50 299 0.0 0.0 0.03 0.29 0.01 94 973.2
20260509043018 50 299 0.0 0.0 0.02 0.28 0.00 94 973.2
20260509042506 50 299 0.0 0.0 0.02 0.28 0.00 94 973.2
20260509042014 50 299 0.0 0.0 0.03 0.28 0.00 94 973.3
20260509041532 50 299 0.0 0.0 0.03 0.28 0.00 94 973.4
20260509041012 50 299 0.0 0.0 0.04 0.28 0.00 94 973.4
20260509040511 50 299 0.0 0.0 0.04 0.28 0.00 94 973.5
20260509040029 50 299 0.0 0.0 0.04 0.28 0.00 94 973.5
20260509035518 50 299 0.0 0.0 0.04 0.28 0.28 94 973.7
20260509035011 50 299 0.0 0.0 0.03 0.27 0.27 94 973.8
20260509034509 50 299 0.0 0.0 0.03 0.27 0.27 94 974.0
20260509034004 50 299 0.0 0.0 0.02 0.26 0.26 94 974.0
20260509033506 50 299 0.0 0.0 0.02 0.26 0.26 94 974.0
20260509033003 50 299 0.0 0.0 0.02 0.26 0.26 94 974.0
20260509032503 50 299 0.0 0.0 0.02 0.26 0.26 94 974.0
20260509032002 50 299 0.0 0.0 0.01 0.25 0.25 94 974.1
20260509031505 50 299 0.0 0.0 0.01 0.25 0.25 94 974.1
20260509031003 50 299 0.0 0.0 0.00 0.24 0.24 94 974.2
20260509030506 50 299 0.0 0.0 0.01 0.24 0.24 94 974.2
20260509030006 50 299 0.0 0.0 0.01 0.24 0.24 94 974.0
20260509025503 50 299 0.0 0.0 0.01 0.24 0.24 94 974.0
20260509025003 50 299 0.0 0.0 0.01 0.24 0.24 94 974.0
20260509024508 50 299 0.0 0.0 0.01 0.24 0.24 94 974.1
20260509024003 50 299 0.0 0.0 0.01 0.24 0.24 94 974.1
20260509023503 50 299 0.0 0.0 0.01 0.24 0.24 94 974.2
20260509023017 50 299 0.0 0.0 0.02 0.24 0.24 94 974.2
20260509022504 50 299 0.0 0.0 0.02 0.24 0.24 94 974.2
20260509022003 50 299 0.0 0.0 0.02 0.24 0.24 94 974.2
20260509021520 50 299 0.0 0.0 0.02 0.24 0.24 94 974.3
20260509021002 50 299 0.0 0.0 0.02 0.24 0.24 94 974.2
20260509020505 50 299 0.0 0.0 0.02 0.23 0.23 94 974.3
20260509020010 50 299 0.0 0.0 0.02 0.23 0.23 93 974.2
20260509015504 50 299 0.0 0.0 0.02 0.23 0.23 93 974.2
20260509015004 50 299 0.0 0.0 0.03 0.23 0.23 93 974.2
20260509014512 50 299 0.0 0.0 0.03 0.23 0.23 93 974.3
20260509014003 50 299 0.0 0.0 0.03 0.23 0.23 93 974.3
20260509013503 50 299 0.0 0.0 0.03 0.23 0.23 93 974.3
20260509013020 50 299 0.0 0.0 0.03 0.22 0.22 93 974.2
20260509012504 50 299 0.0 0.0 0.03 0.22 0.22 93 974.3
20260509012007 50 299 0.0 0.0 0.04 0.22 0.22 93 974.2
20260509011516 50 299 0.0 0.0 0.04 0.22 0.22 93 974.2
20260509011005 50 299 0.0 0.0 0.04 0.22 0.22 93 974.2
20260509010504 50 299 0.0 0.0 0.04 0.21 0.21 93 974.2
20260509010022 50 299 0.0 0.0 0.04 0.21 0.21 93 974.2
20260509005503 50 299 0.0 0.0 0.04 0.21 0.21 93 974.1
20260509005003 50 299 0.0 0.0 0.04 0.20 0.20 93 974.2
20260509004510 50 299 0.0 0.0 0.04 0.20 0.20 93 974.1
20260509004002 50 299 0.0 0.0 0.04 0.20 0.20 93 974.2
20260509003503 50 299 0.0 0.0 0.04 0.20 0.20 93 974.1
20260509003008 51 299 0.0 0.0 0.04 0.19 0.19 93 974.1
20260509002504 51 299 0.0 0.0 0.05 0.19 0.19 93 974.0
20260509002003 51 299 0.0 0.0 0.05 0.18 0.18 93 974.0
20260509001514 51 299 0.0 0.0 0.06 0.18 0.18 93 974.0
20260509001006 51 299 0.0 0.0 0.06 0.18 0.18 93 974.0
20260509000508 51 299 0.0 0.0 0.06 0.17 0.17 93 974.0
20260509000017 51 299 0.0 0.0 0.07 0.17 0.17 92 973.9
20260508235507 51 299 0.0 0.0 0.08 0.17 0.17 92 973.9
20260508235007 51 299 0.0 0.0 0.07 0.16 0.16 92 973.8
20260508234519 51 299 0.0 0.0 0.08 0.16 0.16 92 973.9
20260508234009 51 299 0.0 0.0 0.09 0.16 0.16 92 973.9
20260508233503 51 299 0.0 0.0 0.10 0.16 0.16 92 973.9
20260508233004 51 299 0.0 0.0 0.09 0.15 0.15 92 973.8
20260508232502 51 299 0.0 0.0 0.09 0.14 0.14 92 973.8
20260508232003 51 299 0.0 0.0 0.09 0.13 0.13 92 973.6
20260508231512 51 299 0.0 0.0 0.09 0.12 0.12 91 973.5
20260508231004 51 299 0.0 0.0 0.09 0.12 0.12 91 973.6
20260508230504 51 299 0.0 0.0 0.08 0.11 0.11 91 973.7
20260508230016 51 299 0.0 0.0 0.07 0.10 0.10 91 973.8
20260508225506 51 299 0.0 0.0 0.06 0.09 0.09 91 973.9
20260508225008 51 299 0.0 0.0 0.06 0.09 0.09 91 974.0
20260508224525 51 299 0.0 0.0 0.05 0.08 0.08 91 973.9
20260508224006 51 299 0.0 0.0 0.04 0.07 0.07 91 973.9
20260508223506 51 299 0.0 0.0 0.04 0.06 0.06 90 973.9
20260508223029 51 299 0.0 0.0 0.04 0.06 0.06 91 974.0
20260508222507 51 299 0.0 0.0 0.03 0.05 0.05 90 973.9
20260508222003 51 299 0.0 0.0 0.02 0.04 0.04 90 974.0
20260508221507 51 299 0.0 0.0 0.02 0.03 0.03 90 973.9
20260508221004 51 299 0.0 0.0 0.03 0.03 0.03 90 973.5
20260508220504 51 299 0.0 0.0 0.03 0.03 0.03 89 973.4
20260508220023 51 299 0.0 0.0 0.03 0.03 0.03 89 973.5
20260508215503 51 299 0.0 0.0 0.03 0.03 0.03 89 973.6
20260508215005 51 299 0.0 0.0 0.03 0.03 0.03 88 973.6
20260508214528 52 299 0.0 0.0 0.03 0.03 0.03 88 973.9
20260508214005 52 299 0.0 0.0 0.03 0.03 0.03 88 973.8
20260508213506 52 299 0.0 0.0 0.02 0.02 0.02 88 973.7
20260508213028 52 299 0.0 0.0 0.02 0.02 0.02 87 974.0
20260508212508 52 299 0.0 0.0 0.02 0.02 0.02 87 974.1
20260508212010 52 299 0.0 0.0 0.02 0.02 0.02 86 974.1
20260508211534 53 299 0.0 0.0 0.01 0.01 0.01 86 974.3
20260508211009 53 299 0.0 0.0 0.00 0.00 0.00 84 974.1
20260508210507 53 299 0.0 0.0 0.00 0.00 0.00 83 974.2
20260508210008 53 299 0.0 0.0 0.00 0.00 0.00 82 974.1
20260508205504 54 299 0.0 0.0 0.00 0.00 0.00 81 974.1
20260508205007 54 299 0.0 0.0 0.00 0.00 0.00 80 974.2
20260508204516 55 299 0.0 0.0 0.00 0.00 0.00 79 974.3
20260508204005 55 299 0.0 0.0 0.00 0.00 0.00 79 974.5
20260508203507 55 299 0.0 0.0 0.00 0.00 0.00 78 974.6
20260508203017 56 299 0.0 0.0 0.00 0.00 0.00 76 974.5
20260508202508 56 299 0.0 0.0 0.00 0.00 0.00 75 974.7
20260508202006 57 299 0.0 0.0 0.00 0.00 0.00 74 974.7
20260508201524 57 299 0.0 0.0 0.00 0.00 0.00 73 974.7
20260508201011 57 299 0.0 0.0 0.00 0.00 0.00 72 974.8
20260508200508 58 299 0.0 0.0 0.00 0.00 0.00 71 974.7
20260508200026 58 299 0.0 0.0 0.00 0.00 0.00 72 974.7
20260508195510 58 299 0.0 0.0 0.00 0.00 0.00 72 974.7
20260508195007 58 299 0.0 0.0 0.00 0.00 0.00 71 974.7
20260508194524 58 299 0.0 0.0 0.00 0.00 0.00 71 974.7
20260508194007 58 299 0.0 0.0 0.00 0.00 0.00 71 974.7
20260508193504 58 299 0.0 0.0 0.00 0.00 0.00 71 974.7
20260508193017 58 299 0.0 0.0 0.00 0.00 0.00 71 974.8
20260508192506 59 300 0.0 0.0 0.00 0.00 0.00 68 974.8
20260508192008 59 300 0.0 0.0 0.00 0.00 0.00 69 974.8
20260508191526 60 299 0.0 0.0 0.00 0.00 0.00 68 974.7
20260508191007 60 299 0.0 0.0 0.00 0.00 0.00 70 974.7
20260508190511 60 298 0.0 0.0 0.00 0.00 0.00 69 974.8
20260508190023 60 298 0.0 0.0 0.00 0.00 0.00 70 974.8
20260508185507 59 298 0.0 0.0 0.00 0.00 0.00 71 974.8
20260508185012 59 299 0.0 0.0 0.00 0.00 0.00 71 974.8
20260508184529 59 299 0.0 0.0 0.00 0.00 0.00 71 974.9
20260508184011 58 298 0.0 0.0 0.00 0.00 0.00 71 974.9
20260508183508 58 299 0.0 0.0 0.00 0.00 0.00 73 975.0
20260508183022 57 299 0.0 0.0 0.00 0.00 0.00 73 975.1
20260508182503 57 299 0.0 0.0 0.00 0.00 0.00 73 975.0
20260508182006 57 299 0.0 0.0 0.00 0.00 0.00 73 975.0
20260508181517 57 299 0.0 0.0 0.00 0.00 0.00 70 975.2